Regional Weather Roundup
Issued by NWS

Home | Current Version | Previous Version | Text Only | Print | Product List | Glossary Off
Versions: 1 2 3 4 5 6 7 8 9 10 11 12 13 14 15 16 17 18 19 20 21 22 23 24 25 26 27

000
ASUS45 KBOI 290110
RWRID

IDAHO REGIONAL WEATHER ROUNDUP
NATIONAL WEATHER SERVICE BOISE ID
700 PM MDT WED SEP 28 2016

NOTE: "FAIR" INDICATES FEW OR NO CLOUDS BELOW 12000 FEET
WITH NO SIGNIFICANT WEATHER AND/OR OBSTRUCTIONS TO VISIBILITY

IDZ012-014-290200-
SOUTHWEST IDAHO


CITY           SKY/WX    TMP DP  RH WIND       PRES   REMARKS
BOISE          CLEAR     88  33  14 SE12      29.91S
CALDWELL       CLEAR     85  41  21 SE7       29.89F
MOUNTAIN HOME  CLEAR     84  37  18 E15       29.93F
$$

IDZ016-017-290200-
SOUTHCENTRAL IDAHO


CITY           SKY/WX    TMP DP  RH WIND       PRES   REMARKS
BURLEY         CLEAR     74  48  39 E3        30.04F
JEROME         CLEAR     77  43  29 NE9       30.04F
TWIN FALLS     CLEAR     75  47  36 NE5       30.04F
$$

IDZ019>023-290200-
SOUTHEAST IDAHO


CITY           SKY/WX    TMP DP  RH WIND       PRES   REMARKS
IDAHO FALLS    CLEAR     75  44  33 CALM      30.13S
POCATELLO      CLEAR     74  41  30 S8        30.11S
REXBURG        CLEAR     74  46  36 CALM      30.15S
$$

IDZ006-010-011-018-031-032-290200-
CENTRAL IDAHO MOUNTAINS


CITY           SKY/WX    TMP DP  RH WIND       PRES   REMARKS
MCCALL         CLEAR     78  31  17 S5        30.07F
HAILEY         CLEAR     66  43  42 CALM      30.16F
STANLEY          N/A     67  33  28 SW6       30.18S
SALMON         CLEAR     72  43  35 CALM      30.01F
CHALLIS        CLEAR     72  33  24 SE3       30.09S
$$

IDZ002-004-006-007-026-290200-
NORTHERN IDAHO


CITY           SKY/WX    TMP DP  RH WIND       PRES   REMARKS
LEWISTON       CLEAR     80  46  30 W10       29.89S
LOWELL           N/A     67  59  75 N5        29.86R
COEUR D`ALENE  CLEAR     74  49  41 NE8       29.96S
MULLAN PASS    PTCLDY    64  41  42 CALM      30.15F
$$




USA.gov is the U.S. government's official web portal to all federal, state and local government web resources and services.